Time,TemperatureF,DewpointF,PressureIn,WindDirection,WindDirectionDegrees,WindSpeedMPH,WindSpeedGustMPH,Humidity,HourlyPrecipIn,Conditions,Clouds,dailyrainin,SolarRadiationWatts/m^2,SoftwareType,DateUTC
2013-02-19 00:05:00,48.5,39.5,30.01,WNW,303,6.0,6.0,71,0.00,,,0.00,0,Wunderground v.1.15,2013-02-19 08:05:00,
2013-02-19 00:15:00,48.5,39.9,30.01,NW,307,6.0,7.0,72,0.00,,,0.00,0,Wunderground v.1.15,2013-02-19 08:15:00,
2013-02-19 00:20:00,48.5,39.9,30.01,WNW,303,6.0,6.0,72,0.00,,,0.00,0,Wunderground v.1.15,2013-02-19 08:20:00,
2013-02-19 00:30:00,48.5,39.9,30.01,NW,320,8.0,10.0,72,0.00,,,0.00,0,Wunderground v.1.15,2013-02-19 08:30:00,
2013-02-19 00:39:00,48.5,39.9,30.01,NW,316,8.0,14.0,72,0.00,,,0.00,0,Wunderground v.1.15,2013-02-19 08:39:00,
2013-02-19 00:45:00,48.5,39.9,30.01,NW,316,9.0,14.0,72,0.00,,,0.00,0,Wunderground v.1.15,2013-02-19 08:45:00,
2013-02-19 00:54:00,48.5,39.9,30.01,NW,324,7.0,9.0,72,0.00,,,0.00,0,Wunderground v.1.15,2013-02-19 08:54:00,
2013-02-19 01:00:00,48.5,40.2,30.01,NNW,329,8.0,8.0,73,0.00,,,0.00,0,Wunderground v.1.15,2013-02-19 09:00:00,
2013-02-19 01:09:00,48.5,40.6,30.01,NW,324,8.0,8.0,74,0.00,,,0.00,0,Wunderground v.1.15,2013-02-19 09:09:00,
2013-02-19 01:15:00,48.5,40.6,30.01,NNW,330,8.0,9.0,74,0.00,,,0.00,0,Wunderground v.1.15,2013-02-19 09:15:00,
2013-02-19 01:25:00,48.4,40.5,30.01,NW,322,9.0,11.0,74,0.00,,,0.00,0,Wunderground v.1.15,2013-02-19 09:25:00,
2013-02-19 01:30:00,48.4,40.5,30.01,NW,314,8.0,8.0,74,0.00,,,0.00,0,Wunderground v.1.15,2013-02-19 09:30:00,
2013-02-19 01:40:00,48.4,40.5,30.00,NW,314,6.0,8.0,74,0.00,,,0.00,0,Wunderground v.1.15,2013-02-19 09:40:00,
2013-02-19 01:49:00,48.3,40.0,30.00,NW,319,8.0,8.0,73,0.00,,,0.00,0,Wunderground v.1.15,2013-02-19 09:49:00,
2013-02-19 01:55:00,48.4,40.5,30.00,NW,322,9.0,9.0,74,0.00,,,0.00,0,Wunderground v.1.15,2013-02-19 09:55:00,
2013-02-19 02:05:00,48.4,40.5,30.00,NW,318,4.0,9.0,74,0.00,,,0.00,0,Wunderground v.1.15,2013-02-19 10:05:00,
2013-02-19 02:10:00,48.3,40.4,29.99,NW,318,5.0,5.0,74,0.00,,,0.00,0,Wunderground v.1.15,2013-02-19 10:10:00,
2013-02-19 02:20:00,48.3,40.7,29.99,NW,310,6.0,6.0,75,0.00,,,0.00,0,Wunderground v.1.15,2013-02-19 10:20:00,
2013-02-19 02:30:00,48.2,40.6,29.99,NW,319,3.0,5.0,75,0.00,,,0.00,0,Wunderground v.1.15,2013-02-19 10:30:00,
2013-02-19 02:35:00,48.2,40.6,29.98,WNW,297,3.0,6.0,75,0.00,,,0.00,0,Wunderground v.1.15,2013-02-19 10:35:00,
2013-02-19 02:44:00,48.0,40.8,29.98,NNW,328,6.0,9.0,76,0.00,,,0.00,0,Wunderground v.1.15,2013-02-19 10:44:00,
2013-02-19 02:50:00,47.9,41.0,29.98,NNW,332,6.0,7.0,77,0.00,,,0.00,0,Wunderground v.1.15,2013-02-19 10:50:00,
2013-02-19 03:00:00,47.7,40.8,29.97,NW,325,4.0,4.0,77,0.00,,,0.00,0,Wunderground v.1.15,2013-02-19 11:00:00,
2013-02-19 03:10:00,47.6,41.1,29.97,NW,326,1.0,1.0,78,0.00,,,0.00,0,Wunderground v.1.15,2013-02-19 11:10:00,
2013-02-19 03:19:00,47.6,41.1,29.97,NW,326,1.0,1.0,78,0.00,,,0.00,0,Wunderground v.1.15,2013-02-19 11:19:00,
2013-02-19 03:25:00,47.5,41.0,29.97,NW,325,1.0,1.0,78,0.00,,,0.00,0,Wunderground v.1.15,2013-02-19 11:25:00,
2013-02-19 03:30:00,47.5,41.0,29.97,NW,325,0.0,0.0,78,0.00,,,0.00,0,Wunderground v.1.15,2013-02-19 11:30:00,
2013-02-19 03:40:00,47.6,41.1,29.96,NW,322,1.0,1.0,78,0.00,,,0.00,0,Wunderground v.1.15,2013-02-19 11:40:00,
2013-02-19 03:45:00,47.6,41.1,29.96,NW,323,2.0,2.0,78,0.00,,,0.00,0,Wunderground v.1.15,2013-02-19 11:45:00,
2013-02-19 03:55:00,47.8,41.3,29.96,WSW,245,3.0,4.0,78,0.00,,,0.00,0,Wunderground v.1.15,2013-02-19 11:55:00,
2013-02-19 04:00:00,47.7,41.5,29.96,SW,232,3.0,3.0,79,0.00,,,0.00,0,Wunderground v.1.15,2013-02-19 12:00:00,
2013-02-19 04:10:00,47.9,42.0,29.95,WSW,241,5.0,5.0,80,0.00,,,0.00,0,Wunderground v.1.15,2013-02-19 12:10:00,
2013-02-19 04:20:00,47.9,42.0,29.95,WSW,243,6.0,6.0,80,0.00,,,0.00,0,Wunderground v.1.15,2013-02-19 12:20:00,
2013-02-19 04:25:00,47.9,42.3,29.95,SW,236,4.0,6.0,81,0.00,,,0.00,0,Wunderground v.1.15,2013-02-19 12:25:00,
2013-02-19 04:35:00,48.0,42.8,29.95,SSW,213,4.0,7.0,82,0.00,,,0.00,0,Wunderground v.1.15,2013-02-19 12:35:00,
2013-02-19 04:45:00,48.0,43.1,29.95,WSW,237,4.0,6.0,83,0.00,,,0.00,0,Wunderground v.1.15,2013-02-19 12:45:00,
2013-02-19 04:50:00,47.9,43.3,29.95,SW,226,3.0,3.0,84,0.00,,,0.00,0,Wunderground v.1.15,2013-02-19 12:50:00,
2013-02-19 05:00:00,48.1,43.8,29.95,SW,222,4.0,5.0,85,0.00,,,0.00,0,Wunderground v.1.15,2013-02-19 13:00:00,
2013-02-19 05:10:00,48.3,44.3,29.94,WSW,239,5.0,5.0,86,0.00,,,0.00,0,Wunderground v.1.15,2013-02-19 13:10:00,
2013-02-19 05:15:00,48.3,44.3,29.94,WSW,251,5.0,5.0,86,0.00,,,0.00,0,Wunderground v.1.15,2013-02-19 13:15:00,
2013-02-19 05:25:00,48.5,44.5,29.94,West,264,6.0,7.0,86,0.00,,,0.00,0,Wunderground v.1.15,2013-02-19 13:25:00,
2013-02-19 05:35:00,48.0,44.6,29.95,West,271,8.0,9.0,88,0.13,,,0.02,0,Wunderground v.1.15,2013-02-19 13:35:00,
2013-02-19 05:45:00,47.6,44.5,29.94,West,275,6.0,8.0,89,0.08,,,0.03,0,Wunderground v.1.15,2013-02-19 13:45:00,
2013-02-19 05:54:00,47.6,44.5,29.94,WNW,301,7.0,8.0,89,0.04,,,0.03,0,Wunderground v.1.15,2013-02-19 13:54:00,
2013-02-19 06:00:00,47.8,44.7,29.94,West,264,6.0,6.0,89,0.00,,,0.03,0,Wunderground v.1.15,2013-02-19 14:00:00,
2013-02-19 06:05:00,47.8,44.7,29.93,WSW,243,5.0,11.0,89,0.00,,,0.03,0,Wunderground v.1.15,2013-02-19 14:05:00,
2013-02-19 06:14:00,48.1,44.7,29.93,West,270,8.0,12.0,88,0.00,,,0.03,0,Wunderground v.1.15,2013-02-19 14:14:00,
2013-02-19 06:20:00,48.3,45.2,29.92,WSW,243,9.0,9.0,89,0.00,,,0.03,0,Wunderground v.1.15,2013-02-19 14:20:00,
2013-02-19 06:30:00,48.5,45.4,29.92,West,268,10.0,10.0,89,0.00,,,0.03,0,Wunderground v.1.15,2013-02-19 14:30:00,
2013-02-19 06:35:00,48.5,45.4,29.92,WSW,258,10.0,12.0,89,0.00,,,0.03,0,Wunderground v.1.15,2013-02-19 14:35:00,
2013-02-19 06:45:00,48.5,45.4,29.91,SSW,199,8.0,11.0,89,0.00,,,0.03,0,Wunderground v.1.15,2013-02-19 14:45:00,
2013-02-19 06:55:00,48.5,45.4,29.91,WSW,237,8.0,10.0,89,0.00,,,0.03,0,Wunderground v.1.15,2013-02-19 14:55:00,
2013-02-19 07:05:00,48.6,45.5,29.90,SW,232,9.0,10.0,89,0.00,,,0.03,0,Wunderground v.1.15,2013-02-19 15:05:00,
2013-02-19 07:10:00,48.7,45.6,29.91,SW,227,9.0,9.0,89,0.00,,,0.03,5,Wunderground v.1.15,2013-02-19 15:10:00,
2013-02-19 07:20:00,48.7,45.6,29.90,SSW,213,9.0,9.0,89,0.00,,,0.03,11,Wunderground v.1.15,2013-02-19 15:20:00,
2013-02-19 07:29:00,48.8,45.7,29.90,SSW,213,10.0,11.0,89,0.00,,,0.03,21,Wunderground v.1.15,2013-02-19 15:29:00,
2013-02-19 07:35:00,48.9,45.8,29.90,SSW,213,11.0,11.0,89,0.00,,,0.03,26,Wunderground v.1.15,2013-02-19 15:35:00,
2013-02-19 07:44:00,49.1,45.7,29.90,SW,229,10.0,13.0,88,0.00,,,0.03,23,Wunderground v.1.15,2013-02-19 15:44:00,
2013-02-19 07:50:00,49.0,45.3,29.90,SW,218,10.0,17.0,87,0.00,,,0.03,19,Wunderground v.1.15,2013-02-19 15:50:00,
2013-02-19 08:00:00,49.1,45.4,29.89,SSW,213,10.0,12.0,87,0.00,,,0.03,44,Wunderground v.1.15,2013-02-19 16:00:00,
2013-02-19 08:10:00,49.3,45.6,29.89,SW,231,8.0,8.0,87,0.00,,,0.03,46,Wunderground v.1.15,2013-02-19 16:10:00,
2013-02-19 08:19:00,49.2,45.2,29.89,West,266,9.0,9.0,86,0.00,,,0.03,32,Wunderground v.1.15,2013-02-19 16:19:00,
2013-02-19 08:30:00,49.3,45.3,29.89,WSW,237,9.0,9.0,86,0.00,,,0.03,21,Wunderground v.1.15,2013-02-19 16:30:00,
2013-02-19 08:35:00,49.3,45.3,29.88,SW,231,8.0,9.0,86,0.00,,,0.03,19,Wunderground v.1.15,2013-02-19 16:35:00,
2013-02-19 08:44:00,48.7,45.0,29.88,SW,226,8.0,8.0,87,0.17,,,0.06,23,Wunderground v.1.15,2013-02-19 16:44:00,
2013-02-19 08:50:00,48.5,45.1,29.88,WSW,253,10.0,10.0,88,0.21,,,0.08,16,Wunderground v.1.15,2013-02-19 16:50:00,
2013-02-19 09:00:00,46.7,43.3,29.89,WNW,284,10.0,10.0,88,0.32,,,0.13,23,Wunderground v.1.15,2013-02-19 17:00:00,
2013-02-19 09:09:00,47.0,44.2,29.89,West,279,11.0,16.0,90,0.11,,,0.15,21,Wunderground v.1.15,2013-02-19 17:09:00,
2013-02-19 09:15:00,46.7,43.9,29.88,West,273,11.0,16.0,90,0.11,,,0.16,19,Wunderground v.1.15,2013-02-19 17:15:00,
2013-02-19 09:25:00,46.4,43.3,29.88,West,275,11.0,14.0,89,0.10,,,0.17,40,Wunderground v.1.15,2013-02-19 17:25:00,
2013-02-19 09:34:00,46.4,43.3,29.87,West,277,8.0,10.0,89,0.07,,,0.18,56,Wunderground v.1.15,2013-02-19 17:34:00,
2013-02-19 09:44:00,46.7,43.6,29.87,NW,309,6.0,8.0,89,0.04,,,0.19,54,Wunderground v.1.15,2013-02-19 17:44:00,
2013-02-19 09:50:00,46.6,43.5,29.87,WNW,303,6.0,10.0,89,0.21,,,0.21,79,Wunderground v.1.15,2013-02-19 17:50:00,
2013-02-19 09:59:00,46.2,43.4,29.86,NW,326,9.0,9.0,90,0.06,,,0.21,113,Wunderground v.1.15,2013-02-19 17:59:00,
2013-02-19 10:09:00,45.8,42.7,29.87,NNW,337,8.0,12.0,89,0.00,,,0.22,111,Wunderground v.1.15,2013-02-19 18:09:00,
2013-02-19 10:19:00,45.8,42.4,29.87,NNW,333,9.0,14.0,88,0.00,,,0.22,67,Wunderground v.1.15,2013-02-19 18:19:00,
2013-02-19 10:30:00,45.6,42.0,29.87,NW,322,9.0,9.0,87,0.00,,,0.22,83,Wunderground v.1.15,2013-02-19 18:30:00,
2013-02-19 10:35:00,45.6,42.0,29.86,NW,308,6.0,9.0,87,0.00,,,0.22,84,Wunderground v.1.15,2013-02-19 18:35:00,
2013-02-19 10:45:00,45.8,41.9,29.87,WNW,300,5.0,8.0,86,0.00,,,0.22,72,Wunderground v.1.15,2013-02-19 18:45:00,
2013-02-19 10:54:00,46.0,41.7,29.86,NNW,336,5.0,7.0,85,0.00,,,0.22,139,Wunderground v.1.15,2013-02-19 18:54:00,
2013-02-19 11:00:00,46.1,41.8,29.86,NW,311,5.0,5.0,85,0.00,,,0.22,188,Wunderground v.1.15,2013-02-19 19:00:00,
2013-02-19 11:09:00,46.6,42.3,29.85,NW,305,5.0,5.0,85,0.00,,,0.22,357,Wunderground v.1.15,2013-02-19 19:09:00,
2013-02-19 11:20:00,47.0,42.4,29.85,NW,313,4.0,5.0,84,0.00,,,0.22,227,Wunderground v.1.15,2013-02-19 19:20:00,
2013-02-19 11:25:00,47.2,42.3,29.85,WNW,301,5.0,6.0,83,0.00,,,0.22,225,Wunderground v.1.15,2013-02-19 19:25:00,
2013-02-19 11:35:00,47.0,41.8,29.84,NNW,338,5.0,5.0,82,0.00,,,0.22,237,Wunderground v.1.15,2013-02-19 19:35:00,
2013-02-19 11:40:00,47.1,41.9,29.84,NW,315,5.0,5.0,82,0.00,,,0.22,288,Wunderground v.1.15,2013-02-19 19:40:00,
2013-02-19 11:50:00,46.9,41.4,29.85,NNW,338,8.0,16.0,81,0.00,,,0.22,67,Wunderground v.1.15,2013-02-19 19:50:00,
2013-02-19 11:55:00,46.0,40.8,29.85,NW,321,12.0,16.0,82,0.00,,,0.23,83,Wunderground v.1.15,2013-02-19 19:55:00,
2013-02-19 12:05:00,44.4,39.9,29.84,NW,311,10.0,14.0,84,0.07,,,0.24,93,Wunderground v.1.15,2013-02-19 20:05:00,
2013-02-19 12:15:00,44.5,40.3,29.84,WNW,295,7.0,8.0,85,0.04,,,0.24,120,Wunderground v.1.15,2013-02-19 20:15:00,
2013-02-19 12:24:00,45.0,40.5,29.84,NW,308,6.0,6.0,84,0.00,,,0.24,137,Wunderground v.1.15,2013-02-19 20:24:00,
2013-02-19 12:30:00,45.3,40.7,29.84,NNW,336,6.0,7.0,84,0.00,,,0.24,139,Wunderground v.1.15,2013-02-19 20:30:00,
2013-02-19 12:39:00,45.6,40.4,29.84,NW,325,10.0,17.0,82,0.00,,,0.24,88,Wunderground v.1.15,2013-02-19 20:39:00,
2013-02-19 12:45:00,45.5,40.0,29.84,NW,320,12.0,17.0,81,0.00,,,0.25,74,Wunderground v.1.15,2013-02-19 20:45:00,
2013-02-19 12:54:00,45.1,39.0,29.83,NNW,341,15.0,18.0,79,0.00,,,0.25,79,Wunderground v.1.15,2013-02-19 20:54:00,
2013-02-19 13:00:00,45.1,38.3,29.83,NW,308,15.0,15.0,77,0.00,,,0.25,116,Wunderground v.1.15,2013-02-19 21:00:00,
2013-02-19 13:10:00,45.1,38.3,29.83,NW,311,11.0,11.0,77,0.00,,,0.25,223,Wunderground v.1.15,2013-02-19 21:10:00,
2013-02-19 13:20:00,45.2,38.7,29.82,NW,314,9.0,9.0,78,0.00,,,0.25,139,Wunderground v.1.15,2013-02-19 21:20:00,
2013-02-19 13:29:00,45.5,39.4,29.82,WNW,302,5.0,10.0,79,0.00,,,0.25,230,Wunderground v.1.15,2013-02-19 21:29:00,
2013-02-19 13:34:00,45.7,39.2,29.82,WNW,297,7.0,10.0,78,0.00,,,0.25,663,Wunderground v.1.15,2013-02-19 21:34:00,
2013-02-19 13:44:00,47.4,40.9,29.82,NW,316,7.0,9.0,78,0.00,,,0.25,540,Wunderground v.1.15,2013-02-19 21:44:00,
2013-02-19 13:50:00,48.0,41.5,29.81,NW,326,7.0,11.0,78,0.00,,,0.25,766,Wunderground v.1.15,2013-02-19 21:50:00,
2013-02-19 14:00:00,47.7,40.8,29.81,NNW,336,8.0,8.0,77,0.00,,,0.25,369,Wunderground v.1.15,2013-02-19 22:00:00,
2013-02-19 14:10:00,48.5,42.0,29.80,NW,306,8.0,10.0,78,0.00,,,0.25,717,Wunderground v.1.15,2013-02-19 22:10:00,
2013-02-19 14:20:00,49.0,40.7,29.80,NW,324,10.0,12.0,73,0.00,,,0.25,708,Wunderground v.1.15,2013-02-19 22:20:00,
2013-02-19 14:35:00,49.9,40.1,29.80,NNE,21,11.0,12.0,69,0.00,,,0.25,163,Wunderground v.1.15,2013-02-19 22:35:00,
2013-02-19 14:44:00,48.0,40.1,29.80,North,350,10.0,13.0,74,0.00,,,0.25,137,Wunderground v.1.15,2013-02-19 22:44:00,
2013-02-19 14:49:00,47.9,40.0,29.80,NNW,345,7.0,7.0,74,0.00,,,0.25,211,Wunderground v.1.15,2013-02-19 22:49:00,
2013-02-19 14:55:00,48.7,40.4,29.80,SSW,213,8.0,16.0,73,0.00,,,0.25,645,Wunderground v.1.15,2013-02-19 22:55:00,
2013-02-19 15:05:00,48.1,40.5,29.79,SSW,213,10.0,10.0,75,0.00,,,0.25,585,Wunderground v.1.15,2013-02-19 23:05:00,
2013-02-19 15:15:00,48.8,39.4,29.79,NW,322,9.0,10.0,70,0.00,,,0.25,552,Wunderground v.1.15,2013-02-19 23:15:00,
2013-02-19 15:25:00,49.0,37.3,29.79,SSW,213,10.0,18.0,64,0.00,,,0.25,563,Wunderground v.1.15,2013-02-19 23:25:00,
2013-02-19 15:35:00,49.3,36.4,29.79,NW,305,14.0,18.0,61,0.00,,,0.25,350,Wunderground v.1.15,2013-02-19 23:35:00,
2013-02-19 15:44:00,49.2,36.7,29.79,SSW,213,16.0,16.0,62,0.00,,,0.25,415,Wunderground v.1.15,2013-02-19 23:44:00,
2013-02-19 15:50:00,48.9,36.4,29.79,NW,322,15.0,15.0,62,0.00,,,0.25,369,Wunderground v.1.15,2013-02-19 23:50:00,
2013-02-19 15:59:00,49.0,36.5,29.79,NNW,346,13.0,13.0,62,0.00,,,0.25,380,Wunderground v.1.15,2013-02-19 23:59:00,
2013-02-19 16:05:00,49.0,36.5,29.79,NNW,334,13.0,16.0,62,0.00,,,0.25,366,Wunderground v.1.15,2013-02-20 00:05:00,
2013-02-19 16:15:00,48.8,36.4,29.79,NW,308,15.0,17.0,62,0.00,,,0.25,329,Wunderground v.1.15,2013-02-20 00:15:00,
2013-02-19 16:24:00,48.4,35.6,29.78,NW,313,15.0,20.0,61,0.00,,,0.25,248,Wunderground v.1.15,2013-02-20 00:24:00,
2013-02-19 16:30:00,48.1,35.7,29.78,SSW,213,15.0,15.0,62,0.00,,,0.25,271,Wunderground v.1.15,2013-02-20 00:30:00,
2013-02-19 16:40:00,48.1,35.7,29.77,SSW,213,12.0,16.0,62,0.00,,,0.25,237,Wunderground v.1.15,2013-02-20 00:40:00,
2013-02-19 16:49:00,48.4,36.0,29.78,NNW,330,11.0,12.0,62,0.00,,,0.25,195,Wunderground v.1.15,2013-02-20 00:49:00,
2013-02-19 16:54:00,48.5,36.1,29.78,WNW,295,11.0,12.0,62,0.00,,,0.25,171,Wunderground v.1.15,2013-02-20 00:54:00,
2013-02-19 17:00:00,48.2,36.6,29.78,SSW,213,12.0,14.0,64,0.00,,,0.25,151,Wunderground v.1.15,2013-02-20 01:00:00,
2013-02-19 17:10:00,48.1,36.9,29.78,SSW,213,14.0,14.0,65,0.00,,,0.25,114,Wunderground v.1.15,2013-02-20 01:10:00,
2013-02-19 17:20:00,47.9,37.1,29.77,SSW,213,12.0,12.0,66,0.00,,,0.25,79,Wunderground v.1.15,2013-02-20 01:20:00,
2013-02-19 17:30:00,47.2,36.8,29.77,NW,318,16.0,16.0,67,0.00,,,0.25,47,Wunderground v.1.15,2013-02-20 01:30:00,
2013-02-19 17:40:00,46.6,37.0,29.78,SSW,213,16.0,16.0,69,0.00,,,0.25,16,Wunderground v.1.15,2013-02-20 01:40:00,
2013-02-19 17:45:00,46.3,36.7,29.78,NNW,340,15.0,16.0,69,0.00,,,0.25,7,Wunderground v.1.15,2013-02-20 01:45:00,
2013-02-19 17:54:00,45.9,35.9,29.78,NW,324,13.0,18.0,68,0.00,,,0.25,0,Wunderground v.1.15,2013-02-20 01:54:00,
2013-02-19 18:04:00,45.7,35.7,29.78,NNW,336,14.0,17.0,68,0.00,,,0.25,0,Wunderground v.1.15,2013-02-20 02:04:00,
2013-02-19 18:10:00,45.5,35.9,29.78,NNW,334,15.0,15.0,69,0.00,,,0.25,0,Wunderground v.1.15,2013-02-20 02:10:00,
2013-02-19 18:19:00,45.4,36.2,29.78,NNW,329,16.0,16.0,70,0.00,,,0.25,0,Wunderground v.1.15,2013-02-20 02:19:00,
2013-02-19 18:30:00,45.3,36.4,29.79,NW,323,14.0,14.0,71,0.00,,,0.25,0,Wunderground v.1.15,2013-02-20 02:30:00,
2013-02-19 18:39:00,45.3,36.8,29.79,NNW,328,14.0,17.0,72,0.00,,,0.25,0,Wunderground v.1.15,2013-02-20 02:39:00,
2013-02-19 18:45:00,45.2,36.7,29.79,NW,322,14.0,17.0,72,0.00,,,0.25,0,Wunderground v.1.15,2013-02-20 02:45:00,
2013-02-19 18:54:00,45.1,37.0,29.80,NW,320,12.0,13.0,73,0.00,,,0.25,0,Wunderground v.1.15,2013-02-20 02:54:00,
2013-02-19 19:05:00,44.9,36.8,29.80,NNW,329,11.0,11.0,73,0.00,,,0.25,0,Wunderground v.1.15,2013-02-20 03:05:00,
2013-02-19 19:15:00,44.7,36.6,29.80,North,355,9.0,10.0,73,0.00,,,0.25,0,Wunderground v.1.15,2013-02-20 03:15:00,
2013-02-19 19:24:00,44.5,36.4,29.80,NNW,345,8.0,9.0,73,0.00,,,0.25,0,Wunderground v.1.15,2013-02-20 03:24:00,
2013-02-19 19:34:00,44.6,36.8,29.81,NW,322,7.0,8.0,74,0.00,,,0.25,0,Wunderground v.1.15,2013-02-20 03:34:00,
2013-02-19 19:44:00,44.5,36.7,29.81,NW,314,8.0,9.0,74,0.00,,,0.25,0,Wunderground v.1.15,2013-02-20 03:44:00,
2013-02-19 19:49:00,44.5,36.7,29.81,NNW,348,6.0,6.0,74,0.00,,,0.25,0,Wunderground v.1.15,2013-02-20 03:49:00,
2013-02-19 19:59:00,44.1,36.0,29.81,NNW,348,4.0,6.0,73,0.00,,,0.25,0,Wunderground v.1.15,2013-02-20 03:59:00,
2013-02-19 20:05:00,44.0,35.9,29.81,North,350,5.0,7.0,73,0.00,,,0.25,0,Wunderground v.1.15,2013-02-20 04:05:00,
2013-02-19 20:14:00,44.2,35.7,29.82,North,355,8.0,13.0,72,0.00,,,0.25,0,Wunderground v.1.15,2013-02-20 04:14:00,
2013-02-19 20:20:00,44.3,35.8,29.82,North,351,9.0,9.0,72,0.00,,,0.25,0,Wunderground v.1.15,2013-02-20 04:20:00,
2013-02-19 20:30:00,44.3,35.8,29.82,North,359,10.0,13.0,72,0.00,,,0.25,0,Wunderground v.1.15,2013-02-20 04:30:00,
2013-02-19 20:39:00,44.2,36.1,29.83,North,353,9.0,10.0,73,0.00,,,0.25,0,Wunderground v.1.15,2013-02-20 04:39:00,
2013-02-19 20:49:00,44.1,36.0,29.83,North,10,10.0,10.0,73,0.00,,,0.25,0,Wunderground v.1.15,2013-02-20 04:49:00,
2013-02-19 20:59:00,43.8,35.7,29.83,North,6,8.0,8.0,73,0.00,,,0.25,0,Wunderground v.1.15,2013-02-20 04:59:00,
2013-02-19 21:05:00,43.7,35.6,29.84,NNE,12,7.0,8.0,73,0.00,,,0.25,0,Wunderground v.1.15,2013-02-20 05:05:00,
2013-02-19 21:09:00,43.6,35.9,29.84,North,8,6.0,7.0,74,0.00,,,0.25,0,Wunderground v.1.15,2013-02-20 05:09:00,
2013-02-19 21:15:00,43.4,35.7,29.84,North,351,7.0,7.0,74,0.00,,,0.25,0,Wunderground v.1.15,2013-02-20 05:15:00,
2013-02-19 21:25:00,43.4,35.7,29.84,North,1,9.0,10.0,74,0.00,,,0.25,0,Wunderground v.1.15,2013-02-20 05:25:00,
2013-02-19 21:29:00,43.4,35.7,29.84,North,10,8.0,8.0,74,0.00,,,0.25,0,Wunderground v.1.15,2013-02-20 05:29:00,
2013-02-19 21:34:00,43.3,35.6,29.85,North,1,7.0,8.0,74,0.00,,,0.25,0,Wunderground v.1.15,2013-02-20 05:34:00,
2013-02-19 21:44:00,43.1,35.4,29.85,North,349,8.0,12.0,74,0.00,,,0.25,0,Wunderground v.1.15,2013-02-20 05:44:00,
2013-02-19 21:50:00,43.1,35.4,29.85,North,353,9.0,9.0,74,0.00,,,0.25,0,Wunderground v.1.15,2013-02-20 05:50:00,
2013-02-19 21:59:00,43.3,35.6,29.85,North,353,9.0,9.0,74,0.00,,,0.25,0,Wunderground v.1.15,2013-02-20 05:59:00,
2013-02-19 22:05:00,43.4,35.3,29.85,North,352,8.0,9.0,73,0.00,,,0.25,0,Wunderground v.1.15,2013-02-20 06:05:00,
2013-02-19 22:14:00,43.2,35.5,29.85,North,354,9.0,13.0,74,0.00,,,0.25,0,Wunderground v.1.15,2013-02-20 06:14:00,
2013-02-19 22:20:00,43.1,35.4,29.85,North,349,10.0,10.0,74,0.00,,,0.25,0,Wunderground v.1.15,2013-02-20 06:20:00,
2013-02-19 22:29:00,43.0,35.3,29.86,North,359,8.0,8.0,74,0.00,,,0.25,0,Wunderground v.1.15,2013-02-20 06:29:00,
2013-02-19 22:35:00,43.0,35.6,29.86,NNW,328,8.0,8.0,75,0.00,,,0.25,0,Wunderground v.1.15,2013-02-20 06:35:00,
2013-02-19 22:44:00,42.9,35.5,29.87,North,3,9.0,13.0,75,0.00,,,0.25,0,Wunderground v.1.15,2013-02-20 06:44:00,
2013-02-19 22:54:00,43.0,35.3,29.87,NNW,346,9.0,10.0,74,0.00,,,0.25,0,Wunderground v.1.15,2013-02-20 06:54:00,
2013-02-19 23:00:00,42.9,35.2,29.87,North,4,8.0,10.0,74,0.00,,,0.25,0,Wunderground v.1.15,2013-02-20 07:00:00,
2013-02-19 23:09:00,42.9,35.2,29.88,North,358,8.0,8.0,74,0.00,,,0.25,0,Wunderground v.1.15,2013-02-20 07:09:00,
2013-02-19 23:15:00,42.8,35.4,29.88,North,359,5.0,8.0,75,0.00,,,0.25,0,Wunderground v.1.15,2013-02-20 07:15:00,
2013-02-19 23:24:00,42.6,35.6,29.88,NNW,348,7.0,7.0,76,0.00,,,0.25,0,Wunderground v.1.15,2013-02-20 07:24:00,
2013-02-19 23:35:00,42.4,35.4,29.89,North,10,6.0,7.0,76,0.00,,,0.25,0,Wunderground v.1.15,2013-02-20 07:35:00,
2013-02-19 23:45:00,42.3,35.3,29.89,North,6,6.0,7.0,76,0.00,,,0.25,0,Wunderground v.1.15,2013-02-20 07:45:00,
2013-02-19 23:55:00,42.3,35.3,29.89,North,7,8.0,9.0,76,0.00,,,0.25,0,Wunderground v.1.15,2013-02-20 07:55:00,